Hourly Data Report for May 31, 2004

SHERBROOKE A
QUEBEC

45°26'00.000" N
71°41'00.000" W
241.40 m
7028124
71610
YSC

Download Data

Hourly Data (May 2004)
Hourly Data Report for May 31, 2004
TIME
LST
Temp Definition
°C
Dew Point Definition
°C
Rel Hum Definition
%
Precip. Amount Definition
mm

Wind Dir Definition
10's deg

Wind Spd Definition
km/h
Visibility Definition
km
Stn Press Definition
kPa
Hmdx Definition


Wind Chill Definition


Weather Definition


00:00 1.3 -0.5 88     0 15.0 98.33      
01:00 0.2 -1.4 89   9 6 15.0 98.33      
02:00 -0.1 -1.9 88   12 4 15.0 98.40   -1  
03:00 -0.9 -2.4 90     0 15.0 98.46      
04:00 -1.5 -3.2 88     0 15.0 98.49      
05:00 0.3 -1.3 89   11 6 15.0 98.45      
06:00 3.6 0.8 82   7 7 15.0 98.42      
07:00 7.2 0.8 64     0 24.1 98.39     Clear
08:00 10.0 1.8 57     0 24.1 98.35     Clear
09:00 13.1 2.0 47   27 11 24.1 98.33     Clear
10:00 14.6 0.0 37   23 4 24.1 98.28     Clear
11:00 16.6 4.5 45   26 7 24.1 98.21     Clear
12:00 17.0 2.3 37   20 7 24.1 98.16     Clear
13:00 17.8 2.4 36   33 7 24.1 98.05     Mainly Clear
14:00 19.0 4.8 39   18 6 24.1 97.96     Mainly Clear
15:00 18.6 3.4 36   3 11 24.1 97.87     Mostly Cloudy
16:00 19.3 4.1 37   17 6 24.1 97.86     Mostly Cloudy
17:00 18.0 5.0 42   4 6 15.0 97.78      
18:00 17.9 5.3 43   2 11 15.0 97.75      
19:00 15.2 5.2 51   4 7 15.0 97.76      
20:00 13.6 5.6 58   5 9 15.0 97.72      
21:00 12.7 5.6 62   7 9 15.0 97.69      
22:00 11.4 5.7 68   7 9 15.0 97.70      
23:00 10.6 5.8 72   11 9 15.0 97.70      

Notes on Data Quality.

Legend

  • E = Estimated
  • M = Missing
  • NA = Not Available*
  • [empty] = Indicates an unobserved value
Date modified: